EST,Max TemperatureF,Mean TemperatureF,Min TemperatureF,Max Dew PointF,MeanDew PointF,Min DewpointF,Max Humidity, Mean Humidity, Min Humidity, Max Sea Level PressureIn, Mean Sea Level PressureIn, Min Sea Level PressureIn, Max VisibilityMiles, Mean VisibilityMiles, Min VisibilityMiles, Max Wind SpeedMPH, Mean Wind SpeedMPH, Max Gust SpeedMPH,PrecipitationIn, CloudCover, Events, WindDirDegrees
2013-1-1,70,57,44,55,50,43,93,75,57,30.21,30.09,29.98,10,9,5,13,4,16,0.00,6,,200
2013-1-2,64,59,53,61,56,52,90,84,78,30.13,30.01,29.94,10,8,1,14,7,20,0.01,8,,268
2013-1-3,54,50,46,52,49,44,93,90,86,30.27,30.17,30.09,10,9,3,13,4,21,0.19,8,Rain,321
2013-1-4,58,50,41,45,41,38,100,78,55,30.35,30.30,30.25,10,8,5,10,5,14,0.00,5,,354
2013-1-5,60,47,34,42,36,30,92,66,40,30.40,30.34,30.30,10,10,10,10,4,14,0.00,4,,53
2013-1-6,56,52,48,47,44,40,93,79,64,30.28,30.20,30.14,10,10,4,10,3,12,0.04,8,Rain,295
2013-1-7,59,48,37,43,36,33,89,64,42,30.38,30.31,30.22,10,10,10,13,8,18,0.00,4,,33
2013-1-8,65,55,44,52,44,35,89,75,60,30.38,30.32,30.29,10,10,10,8,5,13,0.00,6,,33
2013-1-9,73,64,55,63,57,52,93,81,68,30.40,30.35,30.30,10,10,6,9,5,13,T,7,,63
2013-1-10,75,64,53,63,59,51,100,88,43,30.42,30.37,30.32,10,4,0,15,5,18,0.00,7,Fog-Rain,57
2013-1-11,79,67,55,64,60,54,100,75,50,30.31,30.24,30.18,10,7,0,13,6,17,0.00,6,Fog,138
2013-1-12,81,70,59,64,60,57,100,76,51,30.22,30.18,30.12,10,5,0,12,4,18,0.00,3,Fog,195
2013-1-13,78,66,54,62,57,54,100,75,50,30.18,30.13,30.09,10,6,0,15,6,17,0.00,5,Fog,176
2013-1-14,81,70,58,64,60,58,97,73,49,30.21,30.15,30.11,10,10,7,16,8,28,0.00,4,,185
2013-1-15,81,70,59,63,59,57,93,69,45,30.17,30.11,30.06,10,10,7,16,8,22,0.00,6,,185
2013-1-16,82,71,60,63,60,57,100,73,45,30.08,30.02,29.96,10,9,3,18,8,24,0.00,2,Fog,191
2013-1-17,79,61,42,61,52,32,93,73,52,30.26,29.93,29.77,10,8,2,31,12,40,0.05,5,Rain,231
2013-1-18,59,49,38,38,30,19,79,51,23,30.49,30.36,30.12,10,10,10,21,11,29,0.00,2,,8
2013-1-19,63,50,37,47,38,28,86,67,47,30.46,30.36,30.25,10,10,9,14,6,20,0.00,3,,55
2013-1-20,69,55,40,48,41,36,96,64,32,30.23,30.16,30.08,10,8,4,16,4,22,0.00,2,,288
2013-1-21,66,51,36,39,36,33,92,62,32,30.14,30.08,30.02,10,10,10,17,5,21,0.00,4,,280
2013-1-22,59,49,38,29,24,20,59,41,23,30.32,30.22,30.11,10,10,10,21,9,29,0.00,2,,288
2013-1-23,59,45,30,34,26,19,72,50,27,30.42,30.32,30.23,10,10,8,18,6,22,0.00,0,,274
2013-1-24,70,56,42,46,38,28,77,55,32,30.41,30.23,30.16,10,9,7,26,12,36,0.00,3,,291
2013-1-25,59,46,33,44,31,21,71,59,47,30.43,30.32,30.17,10,10,7,16,5,22,0.00,6,,17
2013-1-26,72,57,42,54,47,40,89,63,37,30.30,30.19,30.14,10,9,7,18,8,23,0.00,3,,284
2013-1-27,60,50,40,44,40,36,93,68,43,30.47,30.41,30.30,10,9,7,15,9,20,0.00,3,,57
2013-1-28,72,59,45,56,47,39,93,71,49,30.43,30.37,30.30,10,9,6,14,5,16,0.00,5,,69
2013-1-29,78,63,48,63,55,46,100,78,56,30.28,30.22,30.12,10,4,0,20,7,26,0.00,4,Fog,150
2013-1-30,78,67,55,64,62,53,93,75,56,30.10,29.90,29.68,10,9,3,36,18,44,0.25,5,Rain,184
2013-1-31,57,49,40,54,32,20,93,59,24,30.23,30.03,29.80,10,10,10,25,14,33,0.01,2,Rain,266